Location: Unspecified
(48.5670°N, 0.0000°E)
Time: 20:09:52
(UTC+00:00)

Transit 4A - Pass Details

Date: 28 August 2019
Orbit: 866 x 978 km, 66.8° (Epoch: 13 October)

Event Time Altitude Azimuth Distance (km) Brightness Sun altitude
Rises 22:26:31 0° 318° (NW) 3,665 12.2 -28.2°
Reaches altitude 10° 22:30:03 10° 337° (NNW) 2,701 11.3 -28.5°
Maximum altitude 22:34:13 18° 19° (NNE) 2,153 10.3 -28.8°
Drops below altitude 10° 22:38:19 10° 61° (ENE) 2,648 10.3 -29.1°
Enters shadow 22:40:20 - 74° (ENE) 3,158 10.6 -29.2°
